Location: Cheching
(60.0667°N, 164.2167°W)
Time: 21:12:58
(UTC+00:00)

NOAA 15 - Pass Details

Date: 28 January 2021
Orbit: 798 x 812 km, 98.7° (Epoch: 07 March)

Event Time Altitude Azimuth Distance (km) Brightness Sun altitude
Rises 06:05:05 0° 184° (S) 3,307 7.8 -22.5°
Reaches altitude 10° 06:07:32 10° 192° (SSW) 2,383 7.1 -22.8°
Maximum altitude 06:12:31 42° 263° (W) 1,150 5.8 -23.4°
Drops below altitude 10° 06:17:33 10° 333° (NNW) 2,407 7.4 -24.1°
Sets 06:20:02 0° 341° (NNW) 3,345 8.1 -24.4°
